Regional Weather Roundup
Issued by NWS

Home | Current Version | Previous Version | Text Only | Print | Product List | Glossary On
Versions: 1 2 3 4 5 6 7 8 9 10 11 12 13 14 15 16 17 18 19 20 21 22 23 24 25 26 27 28 29 30 31 32 33 34 35 36 37 38 39 40 41 42 43 44 45 46 47 48 49 50
000
ASUS44 KEWX 270002
RWRTX
SOUTH TEXAS REGIONAL WEATHER ROUNDUP
NATIONAL WEATHER SERVICE AUSTIN/SAN ANTONIO TX
600 PM CST THU FEB 26 2015

NOTE: "FAIR" INDICATED FEW OR NO CLOUDS BELOW 12,000 FEET WITH NO
SIGNIFICANT WEATHER AND/OR OBSTRUCTIONS TO VISIBILITY.

* - THESE STATIONS ARE NOT NWS OR FAA STATIONS...AND ARE NOT SUBJECT
    TO NWS AND FAA QUALITY CONTROL.

TXZ171-172-183>190-270100-
TEXAS HILL COUNTRY AND EDWARDS PLATEAU

CITY           SKY/WX    TMP DP  RH WIND       PRES   REMARKS
JUNCTION       CLOUDY    33  24  69 NE14      30.23R WCI  23
6HR MIN TEMP:  33; 6HR MAX TEMP:  42;

*LLANO         CLOUDY    36  28  75 N10G16    30.31R WCI  28
BURNET         CLOUDY    35  25  66 N13       30.28R WCI  26
6HR MIN TEMP:  35; 6HR MAX TEMP:  40;

*HORSESHOE BAY CLOUDY    37  28  72 N8        30.27R WCI  30
6HR MIN TEMP:  37; 6HR MAX TEMP:  43;

*KERRVILLE     CLOUDY    36  30  79 N12G18    30.22R WCI  28
6HR MIN TEMP:  36; 6HR MAX TEMP:  56;

*FREDERICKSBRG CLOUDY    34  28  79 N15       30.21R WCI  24
*ROCKSPRINGS   CLOUDY    34  28  80 NE14G24   30.17R WCI  24
*BOERNE STAGE  CLOUDY    37  32  81 N15       30.21R WCI  28
*CASTROVILLE   CLEAR     47  34  59 NE18G24   30.19R WCI  40
HONDO          CLEAR     44  33  65 NE23G35   30.19R WCI  35
6HR MIN TEMP:  44; 6HR MAX TEMP:  65;

*UVALDE        PTCLDY    50  36  58 NE23G30   30.13R WCI  43
6HR MIN TEMP:  50; 6HR MAX TEMP:  68;

DEL RIO        CLEAR     50  30  46 N13G22    30.15R WCI  45
6HR MIN TEMP:  50; 6HR MAX TEMP:  69;

LAUGHLIN AFB   NOT AVBL
CARRIZO SPRGS  CLOUDY    63  37  39 E13G24    30.04R
$$

TXZ173-191>194-202-209-217>225-228-270100-
CENTRAL AND SOUTH CENTRAL TEXAS

CITY           SKY/WX    TMP DP  RH WIND       PRES   REMARKS
GEORGETOWN     CLOUDY    39  27  60 N14G21    30.27R WCI  31
AUSTIN/BERGSTM MOCLDY    41  30  65 N23       30.24R WCI  31
6HR MIN TEMP:  41; 6HR MAX TEMP:  50;

AUSTIN/MABRY   CLOUDY    40  30  67 N10G18    30.26R WCI  33
6HR MIN TEMP:  40; 6HR MAX TEMP:  47;

*AUSTIN/EXEC   CLOUDY    39  28  65 N18G24    30.26R WCI  30
*LAGO VISTA    CLOUDY    38  30  74 N9G16     30.24R WCI  31
6HR MIN TEMP:  38; 6HR MAX TEMP:  44;

SAN MARCOS     CLOUDY    43  28  56 N20       30.24R WCI  34
NEW BRAUNFELS  CLOUDY    44  33  65 N18       30.20R WCI  36
6HR MIN TEMP:  44; 6HR MAX TEMP:  59;

RANDOLPH AFB   CLOUDY    45  32  61 N18       30.19R WCI  37
6HR MIN TEMP:  44; 6HR MAX TEMP:  58;

PT SAN ANTONIO PTCLDY    45  34  64 NE16G23   30.17R WCI  38
6HR MIN TEMP:  45; 6HR MAX TEMP:  60;

SAN ANTONIO    CLOUDY    44  34  67 N16       30.20R WCI  37
6HR MIN TEMP:  44; 6HR MAX TEMP:  62;

STINSON FIELD  MOCLDY    47  34  60 NE14G24   30.18R WCI  41
6HR MIN TEMP:  47; 6HR MAX TEMP:  61;

*PLEASANTON    CLEAR     50  36  59 N17G26    30.17R WCI  44
6HR MIN TEMP:  50; 6HR MAX TEMP:  65;

*LA GRANGE     CLEAR     47  36  64 N8        30.19R WCI  44
*GIDDINGS      CLEAR     43  32  64 N12G17    30.26R WCI  37
6HR MIN TEMP:  43; 6HR MAX TEMP:  51;

*GONZALES      CLEAR     47  36  64 N14G20    30.19R WCI  42
6HR MIN TEMP:  47; 6HR MAX TEMP:  59;

$$

TXZ163>164-176>182-195>201-210>213-226-227-235-270100-
SOUTHEAST TEXAS

CITY           SKY/WX    TMP DP  RH WIND       PRES   REMARKS
COLLEGE STN    CLEAR     43  30  60 N12       30.25R WCI  37
6HR MIN TEMP:  43; 6HR MAX TEMP:  48;

*BRYAN         CLEAR     43  30  61 N10G18    30.26R WCI  37
*CALDWELL      CLEAR     43  32  65 N12       30.27R WCI  37
*CROCKETT      MOCLDY    43  34  70 N7        30.29R WCI  39
*BRENHAM       CLEAR     47  35  61 N9G17     30.23R WCI  43
HUNTSVILLE     CLOUDY    40  32  73 VRB5      30.25R WCI  37
6HR MIN TEMP:  40; 6HR MAX TEMP:  43;

CONROE         CLOUDY    42  33  70 N9G21     30.24R WCI  37
6HR MIN TEMP:  42; 6HR MAX TEMP:  48;

HOUSTON BUSH   PTCLDY    47  35  63 N16       30.21R WCI  40
6HR MIN TEMP:  47; 6HR MAX TEMP:  55;

HOUSTON HOBBY  PTCLDY    51  35  54 N17       30.19R
6HR MIN TEMP:  45; 6HR MAX TEMP:  57;

*HOUSTON SW AP CLEAR     58  43  58 N12G17    30.18R
PEARLAND       CLEAR     54  35  48 NE12      30.19R
6HR MIN TEMP:  46; 6HR MAX TEMP:  58;

HOUSTON HOOKS  CLEAR     45  35  68 N12       30.22R WCI  39
6HR MIN TEMP:  45; 6HR MAX TEMP:  52;

ELLINGTON FLD  MOCLDY    52  45  76 N14       30.20R
SUGAR LAND     CLEAR     50  36  58 N15       30.19R WCI  45
6HR MIN TEMP:  49; 6HR MAX TEMP:  56;

*HOUSTON EXEC  CLEAR     46  36  66 N14       30.21R WCI  40
*CLEVELAND MUN PTCLDY    43  37  81 N9G21     30.24R WCI  37
*WHARTON       CLEAR     52  38  58 N16       30.18R
*COLUMBUS      FAIR      47  37  67 N8G17     30.19R WCI  44
$$

TXZ214>216-236>238-270100-
THE UPPER TEXAS COAST

CITY           SKY/WX    TMP DP  RH WIND       PRES   REMARKS
*ORANGE        MOCLDY    53  35  49 N9        30.18R
PORT ARTHUR    MOCLDY    53  37  54 N12       30.17R
6HR MIN TEMP:  47; 6HR MAX TEMP:  57;

GALVESTON      MOCLDY    52  40  63 N8        30.18R
6HR MIN TEMP:  44; 6HR MAX TEMP:  52;

ANGLETON       PTCLDY    53  34  48 NE13      30.17R
6HR MIN TEMP:  47; 6HR MAX TEMP:  55;

*BAY CITY      CLEAR     55  35  47 N9        30.17R
PALACIOS       CLEAR     55  35  47 NE13      30.16R
6HR MIN TEMP:  55; 6HR MAX TEMP:  59;

$$

TXZ229>234-239>247-270100-
TEXAS COASTAL BEND AND RIO GRANDE PLAINS

CITY           SKY/WX    TMP DP  RH WIND       PRES   REMARKS
VICTORIA       CLEAR     55  37  50 NE17      30.16R
6HR MIN TEMP:  55; 6HR MAX TEMP:  61;

*BEEVILLE      CLEAR     59  34  38 NE15      30.12R
6HR MIN TEMP:  59; 6HR MAX TEMP:  66;

ROCKPORT       PTCLDY    56  38  50 E18       30.14R
6HR MIN TEMP:  56; 6HR MAX TEMP:  66;

*PORT ARANSAS  CLEAR     56  38  52 NE20G26   30.13R
*PORT LAVACA   CLEAR     55  39  53 NE16G23   30.15R
6HR MIN TEMP:  55; 6HR MAX TEMP:  59;

*INGLESIDE     PTCLDY    58  36  42 NE16G23   30.12R
CORPUS CHRISTI MOCLDY    58  38  47 E22       30.12R
6HR MIN TEMP:  58; 6HR MAX TEMP:  67;

CORPUS NAS     MOCLDY    56  39  53 E21G28    30.13R
6HR MIN TEMP:  56; 6HR MAX TEMP:  63;

*ROBSTOWN      PTCLDY    61  33  34 E24G32    30.11R
ALICE          CLEAR     61  35  37 E16G24    30.10R
6HR MIN TEMP:  61; 6HR MAX TEMP:  71;

KINGSVILLE NAS MOCLDY    58  40  51 E18G26    30.12R
6HR MIN TEMP:  58; 6HR MAX TEMP:  68;

COTULLA        MOCLDY    63  38  39 E18       30.08R
6HR MIN TEMP:  63; 6HR MAX TEMP:  71;

*FAITH RANCH   MOCLDY    68  39  34 E14G22    30.02R
LAREDO         CLEAR     70  42  36 E14       30.03R
6HR MIN TEMP:  70; 6HR MAX TEMP:  75;

$$

TXZ248>255-270100-
DEEP SOUTH TEXAS

CITY           SKY/WX    TMP DP  RH WIND       PRES   REMARKS
BROWNSVILLE    CLEAR     60  45  57 NE15G23   30.08R
6HR MIN TEMP:  60; 6HR MAX TEMP:  70;

PORT ISABEL    CLEAR     59  46  62 NE16G25   30.08R
6HR MIN TEMP:  59; 6HR MAX TEMP:  68;

*SOUTH PADRE   CLEAR     59  48  67 E22       30.08R
HARLINGEN      CLEAR     60  44  55 E17G28    30.08R
6HR MIN TEMP:  60; 6HR MAX TEMP:  71;

*HEBBRONVILLE  CLEAR    N/A N/A N/A E14       30.07R HAZE
MCALLEN        CLEAR     63  45  51 E17G26    30.07R
6HR MIN TEMP:  63; 6HR MAX TEMP:  75;

*WESLACO       CLEAR     63  42  47 E15G22    30.06R
FALFURRIAS     CLEAR     60  40  49 E16G22    30.10R
6HR MIN TEMP:  60; 6HR MAX TEMP:  69;

EDINBURG       CLEAR     63  42  47 E17G23    30.09R
6HR MIN TEMP:  63; 6HR MAX TEMP:  74;

*ZAPATA        CLEAR     67  44  43 E21G29    30.01R
$$

TXZ213>215-236>238-242>244-246-247-251-254-255-270100-
CMAN STATIONS

STATION/POSITION TIME  TEMP    WIND        PRES    WAVE


USA.gov is the U.S. government's official web portal to all federal, state and local government web resources and services.